Location: Asheville, NC
(35.6000°N, 82.5500°W)
Time: 01:22:49
(UTC-05:00)

UWE-3 - Pass Details

Date: 09 January 2018
Orbit: 587 x 683 km, 97.6° (Epoch: 20 January)

Event Time Altitude Azimuth Distance (km) Brightness Sun altitude
Rises 18:15:47 0° 122° (ESE) 2,841 ? -8.4°
Reaches altitude 10° 18:18:54 10° 96° (E) 1,961 ? -9.0°
Maximum altitude 18:21:02 14° 66° (ENE) 1,743 ? -9.4°
Drops below altitude 10° 18:23:12 10° 36° (NE) 1,996 ? -9.8°
Sets 18:26:24 0° 11° (N) 2,931 ? -10.5°
